Lid_Strength_Index
3 3 4 4 4 4 4 5 5 5 5 5 5 5 5 5 5 5 5 5 5 5 5 4 4 4 7 12 10 1 -1 -1 0 2 3 4 6 7 9 8 7 9 8 7 6 6 6
3 4 4 4 4 4 4 4 4 5 5 5 5 5 5 5 5 5 5 4 4 5 5 4 4 4 9 13 6 0 0 1 1 2 3 4 5 5 7 8 8 7 7 7 6 6 6
3 3 4 4 4 4 4 4 5 5 5 5 5 5 5 5 5 5 5 4 4 4 4 4 3 4 10 11 5 0 1 3 2 2 4 3 4 5 6 8 6 7 9 7 8 7 8
4 4 4 4 4 4 4 4 5 5 5 5 5 5 5 5 5 5 5 5 4 3 3 3 3 6 13 9 2 1 2 5 3 2 2 2 3 5 7 5 7 9 9 12 8 7 8
4 4 4 4 4 4 4 4 5 5 5 5 5 5 5 5 5 6 6 5 4 3 2 2 7 10 12 4 7 6 3 6 6 4 3 1 4 7 7 9 11 10 13 13 11 7 7
4 4 4 4 4 4 5 5 5 5 5 5 5 5 5 5 6 6 6 5 3 4 4 3 4 10 9 8 7 7 6 7 7 7 6 6 7 9 10 11 15 14 13 12 12 9 9
4 4 4 4 4 4 4 5 5 5 5 5 5 5 5 6 6 6 7 7 10 9 8 13 13 9 8 7 6 7 6 7 8 8 10 8 10 12 10 9 9 10 11 12 10 8 10
5 5 5 5 5 5 5 5 5 5 5 5 5 5 5 6 6 6 8 8 8 6 9 7 9 8 7 7 10 7 5 8 9 11 9 9 11 9 8 8 9 10 12 12 10 8 10
5 5 5 5 5 5 5 5 5 5 5 5 5 5 6 6 6 8 9 8 7 7 10 8 7 8 7 7 9 9 6 8 9 11 10 10 9 7 8 9 11 12 12 12 11 10 9
5 5 5 5 5 5 6 5 5 5 5 5 5 5 5 6 9 9 8 6 8 7 12 10 9 7 8 8 9 7 6 7 9 10 9 10 9 11 12 10 10 14 9 9 10 12 15
5 5 6 6 6 6 6 6 6 5 5 5 5 5 6 6 10 9 7 8 8 8 16 8 9 7 9 9 9 8 6 8 10 10 11 11 13 13 13 12 9 11 8 9 10 12 13
5 5 6 6 6 6 6 6 6 5 5 5 5 6 6 8 10 9 8 9 8 12 15 10 9 10 10 11 9 8 8 9 9 11 13 12 12 12 12 10 7 10 11 13 14 13 18
5 5 5 6 6 6 6 6 6 5 5 6 6 7 7 7 11 8 9 8 12 16 10 11 12 12 12 12 11 10 10 11 12 15 16 13 13 12 11 13 12 12 14 17 17 17 18
4 5 5 5 6 6 6 6 6 5 6 6 7 7 7 7 8 8 8 9 15 12 11 9 12 13 12 11 12 10 11 12 11 12 15 16 15 13 11 11 12 14 14 16 18 19 17
4 5 5 5 6 6 5 6 6 6 6 7 7 10 10 8 7 9 9 13 14 12 9 9 13 14 14 12 11 11 12 12 10 11 12 16 14 11 11 11 10 14 15 14 17 19 18
5 5 5 5 5 5 5 5 5 5 6 7 10 9 8 7 7 9 10 13 12 10 9 10 13 13 14 12 13 13 12 11 10 10 11 13 15 12 10 11 11 11 12 16 17 18 19
5 5 5 5 5 5 5 5 5 5 6 7 9 8 7 9 9 9 12 12 10 9 9 10 11 12 12 11 13 14 13 11 10 11 11 13 14 13 12 13 14 12 14 17 17 17 18
5 5 5 5 5 5 5 4 5 5 6 8 11 9 7 10 11 13 12 10 9 9 9 10 10 10 11 11 12 12 12 12 7 10 11 12 14 15 14 11 11 13 14 16 16 16 18
5 5 5 5 4 4 5 4 5 5 6 8 10 10 6 9 13 14 12 10 9 10 10 11 11 9 10 11 12 10 9 8 8 11 12 12 14 16 14 12 11 11 12 16 16 17 16
5 5 5 5 5 4 5 4 5 5 6 8 8 9 9 10 12 12 11 11 10 8 9 9 10 11 11 12 11 11 10 8 8 8 5 8 15 14 15 14 12 12 11 12 13 15 15
5 5 5 5 5 4 5 4 4 5 5 8 9 11 10 12 12 11 11 11 10 10 9 9 11 11 12 12 13 12 11 10 9 8 9 11 14 13 13 11 11 11 11 11 12 13 13
6 6 5 5 5 4 5 4 4 5 6 7 9 11 10 11 11 11 12 11 10 10 10 10 10 10 11 12 12 12 12 12 13 12 12 11 13 12 13 11 11 12 11 11 11 12 11
6 6 6 5 5 4 4 5 5 6 7 9 8 8 10 11 11 12 11 10 10 10 10 8 10 11 11 11 11 11 11 12 12 12 13 13 13 14 15 13 12 13 11 12 11 11 12
5 6 6 6 5 5 4 5 4 5 6 8 10 9 9 12 11 10 9 9 10 10 11 9 10 11 10 10 12 14 14 14 13 14 13 14 15 15 15 14 18 12 9 9 11 10 9
5 5 5 5 5 5 5 5 4 4 4 8 9 9 10 11 10 11 10 10 11 11 10 10 9 10 11 13 15 16 16 15 15 14 15 14 14 16 16 17 14 12 10 10 12 12 10
5 5 4 5 5 5 5 5 5 5 5 9 9 8 9 10 11 7 11 11 12 12 10 9 8 9 11 14 15 17 16 17 16 14 15 15 14 13 17 17 17 13 8 7 8 15 9
5 5 5 5 4 4 4 4 5 5 5 7 9 8 8 10 8 9 10 10 9 11 11 11 10 9 11 14 15 16 16 14 15 16 15 16 16 15 16 17 15 10 9 8 14 12 10
5 5 5 5 5 5 4 4 4 4 4 5 9 8 8 11 9 7 6 9 9 10 11 10 9 9 10 13 14 14 15 13 13 13 13 14 15 16 15 16 16 8 8 11 10 9 9
5 5 5 5 4 4 4 4 4 4 4 5 10 7 7 8 9 7 5 5 6 7 9 10 10 9 9 11 11 12 12 13 14 15 12 13 12 13 13 13 9 9 9 8 8 8 8